Zurück zum Katalog

STARLINK-37627

AktivKommunikationSSO
NORAD 69315·PAYLOAD·🇺🇸 United States

Gestartet May 30, 2026 von Vandenberg Space Force Base

Loading…

Nächste Überflüge (nächste 24 Stunden)

TLE

AktuellSource: CelesTrak SupGP

Epoche: Sep 14, 2026, 22:35 UTC

1 69315C 26119V   26257.94145833  .00044895  00000+0  13939-2 0  2575
2 69315  97.2831 282.8144 0001138  97.2192 314.0799 15.33411149    14

Verfolge STARLINK-37627 in Echtzeit mit AllMySat

Download on the App Store